Location: Pedholt
(56.0260°N, 10.2097°E)
Time: 01:08:06
(UTC+00:00)

Abrixas rocket - Pass Details

Date: 14 July 2020
Orbit: 339 x 347 km, 48.4° (Epoch: 06 August)

Event Time Altitude Azimuth Distance (km) Brightness Sun altitude
Exits shadow 00:03:05 13° 140° (SE) 1,116 4.0 -11.9°
Drops below altitude 10° 00:03:42 10° 130° (SE) 1,285 4.4 -11.9°
Sets 00:06:05 0° 110° (ESE) 2,123 5.7 -11.9°
